EW9273 Weather Reports


Display with metric or nautical units.
time (UTC)temp
F
wind
direction
speed
MPH
gust
MPH
rain 1hr
in
rain 24hr
in
rain mn
in
humidity
%
barometer
mb
20260507114607 63 351 4.0 15.0 0.00 0.00 0.00 75 1013.1
20260507114047 63 5 6.0 15.0 0.00 0.00 0.00 75 1012.7
20260507113546 63 333 7.0 16.0 0.00 0.00 0.00 75 1012.5
20260507113047 63 355 5.0 16.0 0.00 0.00 0.00 74 1012.3
20260507112545 63 311 6.0 14.0 0.00 0.00 0.00 74 1012.1
20260507112047 63 61 5.0 13.0 0.00 0.00 0.00 74 1012.3
20260507111543 63 332 4.0 12.0 0.00 0.00 0.00 74 1012.3
20260507111042 63 26 5.0 12.0 0.00 0.00 0.00 74 1012.3
20260507110542 63 41 3.0 11.0 0.00 0.00 0.00 74 1012.2
20260507110045 63 11 5.0 13.0 0.00 0.00 0.00 74 1012.3
20260507105541 63 11 4.0 13.0 0.00 0.00 0.00 74 1012.3
20260507105041 63 24 6.0 13.0 0.00 0.00 0.00 74 1012.4
20260507104549 63 333 3.0 11.0 0.00 0.00 0.00 74 1012.5
20260507104040 63 19 4.0 12.0 0.00 0.00 0.00 74 1012.4
20260507103540 63 9 5.0 11.0 0.00 0.00 0.00 74 1012.3
20260507103038 63 26 4.0 10.0 0.00 0.00 0.00 74 1012.2
20260507102538 63 346 5.0 13.0 0.00 0.00 0.00 74 1012.2
20260507102038 63 331 2.0 13.0 0.00 0.00 0.00 74 1012.1
20260507101538 63 22 3.0 13.0 0.00 0.00 0.00 74 1012.1
20260507101037 63 331 7.0 13.0 0.00 0.00 0.00 74 1012.1
20260507100536 63 360 4.0 11.0 0.00 0.00 0.00 74 1011.9
20260507100038 63 65 4.0 15.0 0.00 0.00 0.00 74 1011.9
20260507095537 63 22 6.0 15.0 0.00 0.00 0.00 74 1012.0
20260507095035 63 23 3.0 13.0 0.00 0.00 0.00 74 1012.0
20260507094535 63 25 5.0 13.0 0.00 0.00 0.00 74 1011.9
20260507094036 63 355 4.0 12.0 0.00 0.00 0.00 74 1012.0
20260507093534 63 38 5.0 12.0 0.00 0.00 0.00 74 1012.0
20260507093038 63 342 3.0 14.0 0.00 0.00 0.00 74 1012.1
20260507092532 63 49 5.0 14.0 0.00 0.00 0.00 74 1012.1
20260507092031 63 360 5.0 12.0 0.00 0.00 0.00 74 1012.1
20260507091539 63 19 4.0 9.0 0.00 0.00 0.00 74 1012.3
20260507091031 63 333 3.0 9.0 0.00 0.00 0.00 74 1012.3
20260507090531 63 5 3.0 11.0 0.00 0.00 0.00 74 1012.4
20260507090029 63 21 6.0 11.0 0.00 0.00 0.00 74 1012.4
20260507085529 63 49 2.0 11.0 0.00 0.00 0.00 74 1012.2
20260507085029 63 40 4.0 11.0 0.00 0.00 0.00 74 1012.1
20260507084532 63 37 3.0 11.0 0.00 0.00 0.00 75 1012.0
20260507084027 63 45 5.0 11.0 0.00 0.00 0.00 74 1012.0
20260507083527 63 69 3.0 10.0 0.00 0.00 0.00 74 1012.0
20260507083027 63 44 3.0 9.0 0.00 0.00 0.00 75 1012.0
20260507082525 63 319 4.0 12.0 0.00 0.00 0.00 74 1012.0
20260507082028 63 55 5.0 12.0 0.00 0.00 0.00 74 1012.0
20260507081525 64 330 5.0 9.0 0.00 0.00 0.00 75 1011.8
20260507081025 64 355 2.0 10.0 0.00 0.00 0.00 75 1011.7
20260507080525 64 331 3.0 8.0 0.00 0.00 0.00 75 1011.7
20260507080024 64 36 2.0 9.0 0.00 0.00 0.00 75 1011.8
20260507075524 64 360 3.0 12.0 0.00 0.00 0.00 75 1011.8
20260507075024 64 350 4.0 12.0 0.00 0.00 0.00 75 1012.0
20260507074524 64 49 4.0 10.0 0.00 0.00 0.00 75 1012.1
20260507074022 64 56 2.0 11.0 0.00 0.00 0.00 75 1012.2
20260507073522 64 355 4.0 11.0 0.00 0.00 0.00 75 1012.3
20260507073022 64 51 3.0 9.0 0.00 0.00 0.00 75 1012.3
20260507072522 64 346 4.0 9.0 0.00 0.00 0.00 75 1012.4
20260507072021 64 338 2.0 10.0 0.00 0.00 0.00 75 1012.3
20260507071521 64 334 4.0 10.0 0.00 0.00 0.00 75 1012.1
20260507071021 64 9 3.0 9.0 0.00 0.00 0.00 75 1012.2
20260507070522 64 17 4.0 9.0 0.00 0.00 0.00 75 1012.2
20260507070020 64 336 4.0 10.0 0.00 0.00 0.00 75 1012.1
20260507065521 64 33 4.0 10.0 0.00 0.00 0.00 75 1012.2
20260507065020 64 54 4.0 10.0 0.00 0.00 0.00 75 1012.2
20260507064519 64 88 4.0 10.0 0.00 0.00 0.00 75 1012.3
20260507064019 64 14 1.0 9.0 0.00 0.00 0.00 75 1012.3
20260507063519 64 54 2.0 9.0 0.00 0.00 0.00 75 1012.2
20260507063031 64 35 4.0 9.0 0.00 0.00 0.00 75 1012.2
20260507062518 64 32 4.0 11.0 0.00 0.00 0.00 75 1012.3
20260507062017 64 15 4.0 13.0 0.00 0.00 0.00 75 1011.9
20260507061518 64 21 5.0 15.0 0.00 0.00 0.00 75 1011.9
20260507061016 64 47 6.0 15.0 0.00 0.00 0.00 75 1011.9
20260507060516 64 47 5.0 14.0 0.00 0.00 0.00 75 1011.9
20260507060032 64 66 3.0 11.0 0.00 0.00 0.00 75 1012.0
20260507055515 64 42 4.0 11.0 0.00 0.00 0.00 75 1012.1
20260507055016 64 49 5.0 12.0 0.00 0.00 0.00 75 1012.1
20260507054514 64 17 6.0 12.0 0.00 0.00 0.00 75 1011.9
20260507054012 64 328 4.0 13.0 0.00 0.00 0.00 75 1011.7
20260507053512 64 63 5.0 13.0 0.00 0.00 0.00 75 1011.2
20260507053011 64 84 3.0 10.0 0.00 0.00 0.00 75 1011.3
20260507052511 64 51 3.0 12.0 0.00 0.00 0.00 75 1011.4
20260507052010 64 72 5.0 12.0 0.00 0.00 0.00 75 1011.4
20260507051510 64 40 3.0 10.0 0.00 0.00 0.00 75 1011.4
20260507051008 64 73 5.0 10.0 0.00 0.00 0.00 75 1011.2
20260507050508 65 42 3.0 10.0 0.00 0.00 0.00 75 1011.4
20260507050007 65 42 4.0 10.0 0.00 0.00 0.00 75 1011.4
20260507045507 65 53 4.0 10.0 0.00 0.00 0.00 75 1011.5
20260507045007 65 5 5.0 13.0 0.00 0.00 0.00 75 1011.5
20260507044505 65 338 4.0 13.0 0.00 0.00 0.00 75 1011.7
20260507044004 65 48 4.0 12.0 0.00 0.00 0.00 75 1011.6
20260507043505 65 45 6.0 12.0 0.00 0.00 0.00 75 1011.6
20260507043003 65 41 4.0 12.0 0.00 0.00 0.00 75 1011.7
20260507042503 65 23 4.0 11.0 0.00 0.00 0.00 75 1011.4
20260507042002 65 12 3.0 11.0 0.00 0.00 0.00 75 1011.3
20260507041501 65 355 4.0 12.0 0.00 0.00 0.00 75 1011.2
20260507041100 65 50 5.0 12.0 0.00 0.00 0.00 75 1011.3
20260507040559 65 52 3.0 12.0 0.00 0.00 0.00 75 1011.2
20260507040110 65 5 3.0 12.0 0.00 0.00 0.00 75 1010.8
20260507035557 65 49 5.0 13.0 0.00 0.00 0.00 75 1010.6
20260507035100 65 360 4.0 14.0 0.00 0.00 0.00 75 1010.7
20260507034604 65 53 4.0 14.0 0.00 0.00 0.00 75 1010.5
20260507034057 65 46 5.0 12.0 0.00 0.00 0.00 75 1010.5
20260507033555 65 42 3.0 13.0 0.00 0.00 0.00 75 1010.7
20260507033103 65 31 5.0 13.0 0.00 0.00 0.00 75 1010.7
20260507032555 65 32 5.0 12.0 0.00 0.00 0.00 75 1010.8
20260507032054 65 59 4.0 14.0 0.00 0.00 0.00 75 1010.7
20260507031604 65 24 6.0 14.0 0.00 0.00 0.00 75 1010.6
20260507031056 65 313 6.0 12.0 0.00 0.00 0.00 75 1010.6
20260507030553 65 341 4.0 11.0 0.00 0.00 0.00 75 1010.5
20260507030154 65 20 4.0 10.0 0.00 0.00 0.00 75 1010.5
20260507025553 65 345 4.0 11.0 0.00 0.00 0.00 75 1010.6
20260507025052 65 360 4.0 13.0 0.00 0.00 0.00 75 1010.4
20260507024552 65 355 4.0 13.0 0.00 0.00 0.00 74 1010.3
20260507024050 65 325 4.0 11.0 0.00 0.00 0.00 74 1010.3
20260507023550 65 11 4.0 15.0 0.00 0.00 0.00 74 1010.2
20260507023051 65 355 4.0 15.0 0.00 0.00 0.00 74 1010.5
20260507022549 65 345 5.0 12.0 0.00 0.00 0.00 74 1010.2
20260507022048 65 19 6.0 14.0 0.00 0.00 0.00 74 1010.0
20260507021548 66 23 6.0 16.0 0.00 0.00 0.00 74 1009.8
20260507021047 66 49 4.0 16.0 0.00 0.00 0.00 74 1009.8
20260507020546 66 30 5.0 16.0 0.00 0.00 0.00 74 1009.8
20260507020046 66 29 5.0 12.0 0.00 0.00 0.00 74 1009.7
20260507015544 66 344 6.0 14.0 0.00 0.00 0.00 73 1009.8
20260507015045 66 5 5.0 16.0 0.00 0.00 0.00 73 1009.3
20260507014550 66 65 9.0 16.0 0.00 0.00 0.00 73 1009.3
20260507014044 66 57 5.0 13.0 0.00 0.00 0.00 73 1009.3
20260507013542 67 326 7.0 13.0 0.00 0.00 0.00 73 1009.3
20260507013049 67 337 5.0 13.0 0.00 0.00 0.00 73 1009.1
20260507012539 67 5 4.0 15.0 0.00 0.00 0.00 73 1009.1
20260507012039 67 342 3.0 13.0 0.00 0.00 0.00 72 1009.1
20260507011537 67 60 6.0 13.0 0.00 0.00 0.00 72 1009.1
20260507011036 67 290 5.0 11.0 0.00 0.00 0.00 72 1008.9
20260507010535 67 327 2.0 12.0 0.00 0.00 0.00 72 1008.8
20260507010045 68 346 5.0 12.0 0.00 0.00 0.00 72 1008.9
20260507005535 68 335 5.0 15.0 0.00 0.00 0.00 71 1008.6
20260507005031 68 5 7.0 15.0 0.00 0.00 0.00 71 1008.4
20260507004530 69 350 5.0 13.0 0.00 0.00 0.00 71 1008.4
20260507004029 69 306 5.0 12.0 0.00 0.00 0.00 70 1008.2
20260507003527 70 40 5.0 12.0 0.00 0.00 0.00 70 1008.3
20260507003026 70 24 4.0 13.0 0.00 0.00 0.00 69 1008.3
20260507002527 71 341 5.0 13.0 0.00 0.00 0.00 69 1008.3
20260507002024 71 319 5.0 13.0 0.00 0.00 0.00 68 1008.2
20260507001528 72 321 5.0 13.0 0.00 0.00 0.00 68 1008.2
20260507001023 72 319 5.0 13.0 0.00 0.00 0.00 68 1008.0
20260507000520 73 360 5.0 11.0 0.00 0.00 0.00 68 1007.9
20260507000019 73 75 4.0 11.0 0.00 0.00 0.00 68 1007.5
20260506235518 73 346 5.0 12.0 0.00 0.00 0.00 67 1007.6
20260506235016 74 145 5.0 12.0 0.00 0.00 0.00 68 1007.5
20260506234522 74 333 4.0 15.0 0.00 0.00 0.00 67 1007.5
20260506234015 74 343 5.0 15.0 0.00 0.00 0.00 67 1007.5
20260506233514 75 330 5.0 14.0 0.00 0.00 0.00 66 1007.3
20260506233014 75 69 5.0 14.0 0.00 0.00 0.00 66 1007.3
20260506232513 76 355 5.0 22.0 0.00 0.00 0.00 66 1007.2
20260506232013 76 331 8.0 22.0 0.00 0.00 0.00 66 1007.2
20260506231512 76 339 5.0 14.0 0.00 0.00 0.00 66 1007.1
20260506231013 77 338 6.0 14.0 0.00 0.00 0.00 65 1007.0
20260506230511 77 59 6.0 14.0 0.00 0.00 0.00 66 1007.0
20260506230011 78 346 6.0 18.0 0.00 0.00 0.00 66 1007.0
20260506225511 78 355 7.0 18.0 0.00 0.00 0.00 66 1006.9
20260506225011 79 14 6.0 15.0 0.00 0.00 0.00 65 1006.8
20260506224511 79 331 4.0 15.0 0.00 0.00 0.00 65 1006.5
20260506224009 80 338 5.0 14.0 0.00 0.00 0.00 65 1006.5
20260506223509 80 328 4.0 16.0 0.00 0.00 0.00 66 1006.3
20260506223010 80 355 7.0 16.0 0.00 0.00 0.00 66 1006.2
20260506222509 80 55 4.0 15.0 0.00 0.00 0.00 67 1006.1
20260506222011 80 22 7.0 15.0 0.00 0.00 0.00 67 1006.1
20260506221508 80 20 6.0 14.0 0.00 0.00 0.00 68 1006.0
20260506221008 80 18 5.0 12.0 0.00 0.00 0.00 68 1006.2
20260506220508 80 355 3.0 14.0 0.00 0.00 0.00 68 1006.2
20260506220015 80 9 6.0 14.0 0.00 0.00 0.00 68 1006.0
20260506215509 81 340 7.0 13.0 0.00 0.00 0.00 67 1006.1
20260506215007 81 360 4.0 13.0 0.00 0.00 0.00 67 1006.1
20260506214509 83 326 5.0 12.0 0.00 0.00 0.00 67 1006.2
20260506214007 83 342 5.0 10.0 0.00 0.00 0.00 68 1006.1
20260506213506 83 86 5.0 11.0 0.00 0.00 0.00 68 1006.0
20260506213008 84 117 6.0 11.0 0.00 0.00 0.00 68 1005.9
20260506212506 84 138 5.0 11.0 0.00 0.00 0.00 68 1005.8
20260506212007 85 78 4.0 11.0 0.00 0.00 0.00 67 1005.9
20260506211509 85 82 4.0 9.0 0.00 0.00 0.00 66 1005.9
20260506211006 86 101 4.0 10.0 0.00 0.00 0.00 65 1005.9
20260506210508 86 96 5.0 10.0 0.00 0.00 0.00 65 1006.0
20260506210011 86 86 3.0 9.0 0.00 0.00 0.00 65 1006.1
20260506205505 86 26 4.0 9.0 0.00 0.00 0.00 64 1006.0
20260506205010 88 49 2.0 8.0 0.00 0.00 0.00 62 1005.9
20260506204506 86 67 0.0 10.0 0.00 0.00 0.00 66 1006.0
20260506204005 86 105 4.0 10.0 0.00 0.00 0.00 65 1006.2
20260506203504 86 117 2.0 8.0 0.00 0.00 0.00 65 1006.3
20260506203003 87 83 2.0 8.0 0.00 0.00 0.00 64 1006.3
20260506202506 87 24 0.0 5.0 0.00 0.00 0.00 63 1006.4
20260506202003 87 30 1.0 6.0 0.00 0.00 0.00 63 1006.5
20260506201502 87 30 0.0 5.0 0.00 0.00 0.00 64 1006.6
20260506201004 86 321 1.0 5.0 0.00 0.00 0.00 66 1006.5
20260506200501 85 42 2.0 5.0 0.00 0.00 0.00 66 1006.5
20260506200004 85 75 1.0 6.0 0.00 0.00 0.00 66 1006.4
20260506195501 86 70 3.0 6.0 0.00 0.00 0.00 65 1006.4
20260506195002 86 86 2.0 6.0 0.00 0.00 0.00 66 1006.5
20260506194503 87 17 1.0 4.0 0.00 0.00 0.00 65 1006.5
20260506194103 86 175 1.0 5.0 0.00 0.00 0.00 66 1006.5
20260506193558 86 28 3.0 5.0 0.00 0.00 0.00 65 1006.6
20260506193058 85 92 0.0 5.0 0.00 0.00 0.00 67 1006.5
20260506192557 84 173 2.0 6.0 0.00 0.00 0.00 68 1006.6
20260506192057 85 95 2.0 6.0 0.00 0.00 0.00 67 1006.8
20260506191557 85 94 1.0 5.0 0.00 0.00 0.00 66 1006.8
20260506191056 84 324 2.0 6.0 0.00 0.00 0.00 69 1006.7
20260506190557 84 83 3.0 6.0 0.00 0.00 0.00 68 1006.8
20260506190057 83 76 2.0 5.0 0.00 0.00 0.00 69 1006.9
20260506185556 84 151 1.0 6.0 0.00 0.00 0.00 71 1006.9
20260506185053 82 59 2.0 6.0 0.00 0.00 0.00 72 1006.9
20260506184556 82 22 1.0 5.0 0.00 0.00 0.00 73 1007.0
20260506184052 83 73 2.0 5.0 0.00 0.00 0.00 71 1007.1
20260506183552 83 221 0.0 6.0 0.00 0.00 0.00 72 1007.2
20260506183051 83 98 0.0 5.0 0.00 0.00 0.00 73 1007.2
20260506182549 81 53 2.0 5.0 0.00 0.00 0.00 75 1007.5
20260506182048 80 74 2.0 6.0 0.00 0.00 0.00 76 1007.6
20260506181547 80 51 2.0 6.0 0.00 0.00 0.00 76 1007.7
20260506181046 80 355 2.0 8.0 0.00 0.00 0.00 76 1007.7
20260506180546 80 35 2.0 8.0 0.00 0.00 0.00 77 1007.6
20260506180047 80 360 2.0 6.0 0.00 0.00 0.00 77 1007.6
20260506175547 79 39 2.0 4.0 0.00 0.00 0.00 77 1007.7
20260506175046 79 53 1.0 8.0 0.00 0.00 0.00 77 1007.7
20260506174548 79 24 3.0 8.0 0.00 0.00 0.00 77 1007.8
20260506174045 79 40 3.0 6.0 0.00 0.00 0.00 77 1007.8
20260506173547 79 67 2.0 6.0 0.00 0.00 0.00 77 1007.9
20260506173056 79 36 3.0 9.0 0.00 0.00 0.00 76 1007.9
20260506172545 80 52 2.0 7.0 0.00 0.00 0.00 76 1007.9
20260506172046 80 74 3.0 8.0 0.00 0.00 0.00 75 1008.0
20260506171551 80 328 2.0 9.0 0.00 0.00 0.00 76 1008.0
20260506171046 80 42 4.0 9.0 0.00 0.00 0.00 76 1008.0
20260506170542 80 60 2.0 8.0 0.00 0.00 0.00 77 1008.0
20260506170042 79 80 3.0 8.0 0.00 0.00 0.00 77 1007.9
20260506165543 79 78 3.0 7.0 0.00 0.00 0.00 78 1008.0
20260506165040 79 95 1.0 6.0 0.00 0.00 0.00 79 1008.1
20260506164552 79 96 3.0 5.0 0.00 0.00 0.00 78 1008.0
20260506164038 79 58 2.0 5.0 0.00 0.00 0.00 80 1007.9
20260506163537 78 344 2.0 5.0 0.00 0.00 0.00 79 1008.0
20260506163038 78 19 2.0 5.0 0.00 0.00 0.00 80 1008.0
20260506162535 78 70 2.0 6.0 0.00 0.00 0.00 81 1008.0
20260506162034 78 336 2.0 6.0 0.00 0.00 0.00 81 1008.1
20260506161534 78 19 2.0 5.0 0.00 0.00 0.00 82 1008.1
20260506161032 77 333 1.0 6.0 0.00 0.00 0.00 83 1008.0
20260506160531 77 342 3.0 6.0 0.00 0.00 0.00 83 1008.0
20260506160030 77 30 1.0 5.0 0.00 0.00 0.00 83 1008.0
20260506155528 76 46 3.0 4.0 0.00 0.00 0.00 83 1007.9
20260506155027 76 12 1.0 3.0 0.00 0.00 0.00 84 1007.8
20260506154525 76 50 1.0 5.0 0.00 0.00 0.00 84 1007.7
20260506154024 76 66 2.0 5.0 0.00 0.00 0.00 84 1007.5
20260506153524 76 355 0.0 3.0 0.00 0.00 0.00 85 1007.6
20260506153022 76 355 0.0 3.0 0.00 0.00 0.00 85 1007.5
20260506152522 76 355 1.0 3.0 0.00 0.00 0.00 85 1007.5
20260506152022 76 61 1.0 3.0 0.00 0.00 0.00 85 1007.3
20260506151521 75 68 0.0 3.0 0.00 0.00 0.00 85 1007.2
20260506151019 75 88 1.0 3.0 0.00 0.00 0.00 85 1007.1
20260506150521 75 42 1.0 3.0 0.00 0.00 0.00 85 1007.2
20260506150018 75 42 0.0 3.0 0.00 0.00 0.00 85 1007.2
20260506145519 75 82 1.0 3.0 0.00 0.00 0.00 85 1007.2
20260506145018 75 30 0.0 3.0 0.00 0.00 0.00 85 1007.1
20260506144517 75 32 1.0 3.0 0.00 0.00 0.00 85 1007.0
20260506144015 75 86 1.0 3.0 0.00 0.00 0.00 85 1006.9
20260506143515 75 86 0.0 4.0 0.00 0.00 0.00 85 1006.8
20260506143015 75 86 1.0 4.0 0.00 0.00 0.00 85 1006.7
20260506142514 75 86 0.0 3.0 0.00 0.00 0.00 85 1006.6
20260506142013 75 69 1.0 3.0 0.00 0.00 0.00 85 1006.7
20260506141512 75 71 0.0 3.0 0.00 0.00 0.00 85 1006.5
20260506141014 75 115 0.0 3.0 0.00 0.00 0.00 85 1006.5
20260506140512 75 76 1.0 3.0 0.00 0.00 0.00 85 1006.4
20260506140011 75 190 0.0 5.0 0.00 0.00 0.00 85 1006.4
20260506135510 75 65 0.0 4.0 0.00 0.00 0.00 85 1006.2
20260506135008 75 61 0.0 3.0 0.00 0.00 0.00 85 1006.1
20260506134508 75 167 0.0 4.0 0.00 0.00 0.00 85 1006.0
20260506134007 75 126 0.0 5.0 0.00 0.00 0.00 85 1005.9
20260506133507 75 69 0.0 5.0 0.00 0.00 0.00 85 1005.8
20260506133008 75 65 1.0 6.0 0.00 0.00 0.00 85 1005.9
20260506132506 75 100 1.0 6.0 0.00 0.00 0.00 85 1005.8
20260506132010 75 98 1.0 6.0 0.00 0.00 0.00 85 1005.7
20260506131505 75 71 0.0 4.0 0.00 0.00 0.00 85 1005.8
20260506131005 75 98 0.0 4.0 0.00 0.00 0.00 85 1005.7
20260506130505 75 79 1.0 4.0 0.00 0.00 0.00 85 1005.7
20260506130012 75 65 0.0 4.0 0.00 0.00 0.00 85 1005.7
20260506125504 75 63 0.0 4.0 0.00 0.00 0.00 85 1005.7
20260506125004 75 82 0.0 4.0 0.00 0.00 0.00 85 1005.7
20260506124503 74 57 0.0 2.0 0.00 0.00 0.00 85 1005.8
20260506124002 74 57 0.0 3.0 0.00 0.00 0.00 85 1005.8
20260506123503 74 34 0.0 3.0 0.00 0.00 0.00 85 1005.9
20260506123002 74 152 0.0 2.0 0.00 0.00 0.00 85 1005.8
20260506122502 74 152 0.0 3.0 0.00 0.00 0.00 85 1005.8
20260506122059 74 77 0.0 3.0 0.00 0.00 0.00 85 1005.7
20260506121613 74 77 0.0 2.0 0.00 0.00 0.00 85 1005.6
20260506121059 74 77 0.0 2.0 0.00 0.00 0.00 85 1005.6
20260506120558 74 77 0.0 2.0 0.00 0.00 0.00 85 1005.5
20260506120119 74 77 0.0 3.0 0.00 0.00 0.00 85 1005.6
20260506115557 74 77 0.0 3.0 0.00 0.00 0.00 85 1005.5
20260506115057 74 134 0.0 4.0 0.00 0.00 0.00 85 1005.6